Temp_Advection
nan nan nan nan nan nan nan nan nan nan nan nan nan nan nan nan nan nan nan nan nan nan nan nan nan nan nan nan nan nan nan nan nan nan nan nan nan nan nan nan nan nan nan nan nan nan nan
nan -0 0 0 -0 -0 0 -0 -0 -0 -0 -0 -0 0 0 -0 -0 -0 0 0 0 0 0 0 0 -0 -0 -0 0 0 0 -0 -0 -0 -0 -0 -0 -0 0 -0 0 -0 -0 0 0 -0 nan
nan -0 -0 -0 -0 -0 -0 0 -0 -0 -0 -0 -0 0 0 0 0 0 0 0 -0 0 0 0 0 0 -0 0 0 0 -0 -0 -0 -0 -0 -0 -0 -0 -0 -0 -0 -0 -1 -1 0 0 nan
nan -0 -0 -0 -0 -0 -0 0 -0 -0 -0 -0 -0 -0 0 -0 0 0 0 0 0 -0 0 0 0 -0 -0 0 -0 -0 -0 -0 -0 -0 -0 0 -0 -0 0 -0 -0 -0 -0 -0 -0 -0 nan
nan -0 0 0 -0 -0 -0 0 0 -0 -0 -0 -0 -0 -0 -0 0 0 0 0 0 0 0 0 0 0 -0 -0 -0 -0 -0 -0 -0 -0 -0 -0 -0 -0 -0 0 -0 -0 -0 -0 -1 -1 nan
nan -0 0 0 -0 -0 -0 -0 0 0 -0 -0 -0 -0 -0 -0 0 0 0 0 0 0 0 0 0 0 -0 -0 -0 -0 -0 -0 -0 -0 -0 -0 0 0 -0 -0 -0 -0 -0 -0 -0 -0 nan
nan 0 0 0 0 -0 -0 -0 -0 0 -0 -0 -0 -0 -0 -0 0 0 0 0 0 0 -0 -0 0 0 -0 -0 -0 -0 -0 -0 -0 -0 -0 -0 0 -0 -0 -0 0 0 -0 -1 -1 -0 nan
nan -0 0 0 0 0 -0 -0 -0 -0 -0 -0 -0 -0 -0 -0 0 0 0 -0 -0 0 0 0 0 -0 -0 -0 -0 -0 -0 -0 -0 -0 -0 0 0 -0 0 0 -0 0 -0 -1 -1 -0 nan
nan -0 0 0 -0 0 -0 -0 -0 -0 -0 -0 -0 -0 -0 -0 0 0 0 0 0 0 0 0 0 -0 -0 -0 -0 -0 -0 -0 0 -0 -0 0 -0 -0 -0 -0 -0 -0 0 -0 -1 -1 nan
nan 0 0 -0 -0 0 0 -0 -0 -0 -0 -0 -0 -0 0 0 0 0 -0 0 0 0 0 -0 0 -0 -0 0 -0 -0 -0 -0 0 -0 0 -0 -0 -0 -0 -0 -0 -1 -0 0 -0 0 nan
nan -0 0 0 -0 -0 0 0 -0 -0 -0 -0 -0 0 0 0 0 0 0 0 0 0 -0 -0 0 0 -0 -0 -0 -0 -0 -0 -0 -0 -0 -0 -0 0 -0 -0 0 -0 -0 -0 -0 -0 nan
nan 0 0 0 0 -0 0 -0 -0 -0 -0 -0 -0 0 0 0 0 0 0 0 0 -0 -0 0 -0 -0 -0 -0 -0 -0 -0 -0 -0 -0 -0 -0 -0 0 0 -0 0 0 -0 -1 -0 0 nan
nan 0 0 0 0 0 -0 -0 -0 -0 0 -0 -0 -0 0 0 0 0 0 -0 -0 0 -0 0 0 0 -0 -0 -0 -0 -0 -0 -0 -0 -0 -0 0 -0 0 0 -0 -0 -0 -0 0 0 nan
nan 0 -0 0 1 0 -0 -0 -0 -0 0 -0 -0 -0 -0 -0 0 0 0 -0 -0 0 -0 0 -0 -0 -0 -0 -0 -0 -0 -0 -0 -0 -0 -0 -0 -0 0 0 0 -0 -0 -0 -0 -0 nan
nan -0 0 0 0 0 0 -0 -0 -0 -0 -0 -0 -0 -0 -0 0 0 0 -0 -0 -0 0 0 -0 -0 0 0 -0 -0 -0 0 -0 0 -0 0 -0 -0 -0 0 0 0 0 -0 -0 -0 nan
nan 0 -0 -0 0 0 1 0 -0 -0 -0 -0 -0 -0 -0 0 0 0 -0 -0 -0 -0 0 0 0 0 -0 0 0 -0 -0 0 -0 0 0 -0 -0 -0 -0 -0 -0 0 -0 0 -0 -0 nan
nan 0 0 0 -0 0 1 0 -0 -0 -0 0 0 0 0 0 0 1 0 -0 -0 -0 0 -0 0 0 -0 0 0 0 -0 -0 0 -0 -0 -0 -0 -0 -0 -0 -0 -0 -0 -0 -0 -0 nan
nan -0 0 0 0 0 0 0 -0 -0 -0 0 -0 0 0 0 -0 0 0 -0 -0 0 0 0 -0 0 0 -0 0 -0 -0 -0 -0 0 0 -0 0 -0 -0 -0 0 0 0 0 0 -0 nan
nan -0 -0 -0 0 0 0 0 0 -0 -0 0 -0 -0 0 1 0 -0 -0 -0 -0 0 0 0 0 0 0 -0 0 0 0 0 -0 -0 0 0 0 -0 0 0 -0 -0 0 0 0 0 nan
nan -1 -1 -0 0 0 -0 0 0 -0 -0 0 0 0 -0 0 -0 -0 -0 -0 -0 0 0 0 0 0 -0 0 0 0 0 0 0 0 -0 -0 0 -0 0 -0 -0 -0 -0 0 0 0 nan
nan -1 -1 -1 -1 0 0 0 -0 -0 0 0 0 -0 0 -0 -0 -0 -0 0 -0 0 -0 0 0 0 -0 -0 0 0 0 0 -0 0 0 0 0 -0 -0 0 -0 -0 -0 0 0 0 nan
nan -1 -1 -1 -0 0 0 0 0 -0 0 0 0 0 0 0 0 -0 -0 -0 -0 -0 0 0 -0 0 0 -0 -0 -0 -0 0 0 0 -0 -0 0 -0 -0 0 -0 -0 0 0 0 -0 nan
nan -0 -1 -1 -0 -0 1 0 0 -0 0 -0 -0 -0 -0 0 0 0 -0 -0 0 0 -0 -0 -0 -0 -0 -0 0 -0 0 0 0 0 0 -0 -0 0 -0 -0 0 -0 -0 0 0 0 nan
nan -0 -0 -1 -2 0 -0 -0 -0 0 0 -0 -0 -0 -0 0 -0 0 0 -0 0 -0 0 0 0 -0 -0 -0 0 0 -0 0 0 0 0 -0 -0 -0 -0 -0 -0 0 -0 -0 -0 0 nan
nan -0 -0 -0 -1 -1 -1 1 -0 1 -0 0 -0 -0 -0 -0 0 -0 0 0 0 0 0 0 0 0 -0 0 -0 -0 -0 -0 -0 -0 0 0 -0 -0 0 -0 -0 -0 -0 0 0 0 nan
nan -0 -0 -0 -1 -2 1 -0 -1 0 -0 1 0 -0 0 -1 -0 -0 -0 0 -0 0 0 0 0 1 0 -0 0 0 -0 -0 -0 -0 -0 0 -0 -0 0 -0 -0 0 -0 0 0 -0 nan
nan -0 -0 -1 -1 -0 -1 -2 -1 -0 1 0 -0 0 -0 -0 -0 0 -0 -0 -0 -0 -0 0 0 0 0 -0 0 0 0 -0 -0 -0 -0 -0 0 0 -0 -0 -0 0 0 -0 -0 0 nan
nan -0 -0 -0 -0 -1 -1 -1 0 0 1 -0 0 -0 -0 0 0 -0 -0 -0 -0 -1 -0 -0 -0 0 -0 0 0 0 0 0 -0 0 -0 -0 -1 -0 -0 -0 -0 0 0 -0 -0 0 nan
nan nan nan nan nan nan nan nan nan nan nan nan nan nan nan nan nan nan nan nan nan nan nan nan nan nan nan nan nan nan nan nan nan nan nan nan nan nan nan nan nan nan nan nan nan nan nan
Wind_Speed
9 6 4 4 4 4 5 6 6 7 7 8 7 7 7 8 9 8 6 6 7 9 11 14 14 16 18 19 10 12 13 15 18 21 23 20 16 5 4 4 11 5 7 13 19 22 23
6 4 3 3 3 4 6 7 7 7 8 8 8 8 8 9 8 8 5 4 6 8 11 17 18 16 15 19 12 11 14 17 18 19 20 16 8 5 2 1 2 8 19 21 16 17 19
5 4 3 3 4 5 6 7 7 7 8 8 8 7 7 8 8 8 5 4 6 7 9 12 15 19 24 13 12 11 14 17 16 17 18 12 9 2 2 3 6 10 15 17 10 8 6
6 2 4 4 6 7 6 6 7 9 8 7 7 6 6 6 6 9 5 7 7 7 9 8 9 13 11 15 13 13 16 16 15 12 12 8 7 1 0 3 5 7 5 7 9 23 6
3 3 4 7 8 8 6 6 6 9 9 5 5 5 5 5 5 8 5 7 6 4 5 7 6 9 7 12 14 17 20 19 15 11 9 7 4 3 3 5 5 3 10 11 10 12 12
6 6 8 9 10 8 7 7 7 8 9 4 4 4 4 4 4 6 4 5 5 6 3 6 8 6 11 12 15 16 20 14 12 10 3 6 4 2 2 4 6 13 16 16 15 7 16
11 7 12 10 9 10 9 8 8 8 8 5 4 3 2 3 3 6 4 4 2 4 9 7 6 6 6 10 16 20 23 12 7 7 5 4 4 7 8 7 12 14 17 20 20 14 18
13 9 13 10 10 10 9 9 8 7 7 6 4 2 1 1 2 6 5 4 6 4 4 6 7 9 6 10 6 23 23 7 5 7 7 4 5 3 6 9 13 16 18 23 18 14 14
13 12 14 11 9 11 14 11 10 8 7 6 4 3 2 1 2 4 6 5 5 5 2 2 5 8 4 5 7 17 23 5 4 7 8 1 3 6 12 13 16 13 16 20 21 19 16
13 14 16 13 12 11 13 12 10 9 7 5 5 4 3 3 2 4 5 4 5 5 3 1 1 4 3 4 3 19 22 5 6 5 5 1 4 10 11 13 14 19 8 16 20 11 10
18 18 16 15 15 13 12 12 10 9 7 5 6 5 4 5 3 4 4 4 4 4 2 2 2 4 6 6 4 9 22 5 8 6 2 6 7 12 12 13 16 11 15 16 16 12 12
18 16 20 19 16 15 14 12 9 9 7 5 6 6 5 5 5 4 4 5 7 5 4 2 1 2 3 4 3 5 11 8 3 2 3 4 5 4 6 18 11 13 13 11 6 6 5
25 21 18 19 17 15 13 12 10 8 6 6 7 7 7 7 6 4 5 4 4 3 2 3 3 2 3 3 3 4 5 12 8 6 10 8 5 4 9 16 6 15 5 3 2 3 5
19 26 24 20 19 17 13 12 10 8 7 8 8 8 8 9 8 7 7 3 3 2 4 2 3 5 3 2 2 4 2 4 9 4 1 6 4 6 9 6 8 9 4 3 5 3 6
25 20 25 23 19 20 17 14 12 10 9 9 8 7 9 10 12 10 5 2 6 6 5 8 3 3 2 1 2 2 3 1 3 5 5 5 4 5 6 6 11 7 4 7 5 3 5
28 28 25 28 26 21 20 16 14 12 11 10 7 5 7 11 14 11 3 4 3 5 5 3 4 3 5 3 2 2 2 1 1 2 2 1 5 1 6 7 6 5 10 2 2 4 4
26 30 30 27 26 25 23 18 17 14 14 12 9 3 8 15 14 7 3 6 4 8 6 4 5 4 4 4 3 2 3 2 0 4 1 0 1 3 4 6 8 7 6 4 3 3 4
21 26 31 30 28 26 27 21 20 17 17 15 11 1 15 21 5 1 3 4 6 7 6 3 4 3 5 6 4 4 5 3 2 1 1 1 1 4 3 7 4 1 6 6 3 5 3
32 16 32 31 32 28 26 25 24 22 21 20 10 6 18 23 4 3 4 3 5 4 5 6 4 3 3 5 4 4 4 6 3 3 1 0 1 3 1 1 4 4 9 9 3 0 4
27 32 20 32 35 33 29 27 26 26 24 23 9 4 7 17 6 5 4 4 3 6 5 6 5 6 4 4 2 5 5 4 3 6 3 2 1 2 1 2 3 9 16 11 2 1 3
32 33 31 23 33 36 34 31 29 30 28 27 11 6 10 6 9 7 5 6 7 5 4 9 2 5 7 3 3 5 4 1 1 4 2 1 3 2 4 7 7 8 10 7 0 1 1
29 31 31 28 29 38 39 37 30 36 31 33 10 6 8 9 13 17 9 7 11 4 8 5 4 10 8 6 6 6 7 4 3 3 3 1 3 1 1 1 4 3 4 2 8 10 8
31 30 31 32 28 32 42 40 37 41 41 21 30 11 6 11 8 10 11 7 11 9 8 7 11 6 7 10 12 7 9 7 5 6 5 3 4 2 2 4 3 1 1 2 2 2 1
33 31 31 32 34 27 18 48 44 42 46 30 30 15 7 3 5 8 8 19 10 12 7 5 16 6 6 9 10 6 4 1 4 6 6 5 4 1 1 0 3 2 3 4 6 4 5
32 32 33 31 33 36 27 49 48 45 50 47 29 27 9 3 9 5 9 13 12 15 4 8 8 10 15 9 3 3 3 3 3 2 8 3 4 2 1 2 4 3 5 6 6 6 3
34 33 33 34 34 37 26 25 52 51 47 48 44 35 16 10 8 13 11 14 6 5 3 5 8 16 11 4 2 3 4 3 3 4 4 5 3 1 2 2 5 3 6 5 4 5 7
32 32 32 32 35 32 42 27 57 52 47 51 44 35 28 9 5 18 7 11 12 7 4 7 9 6 7 2 2 3 3 2 5 7 6 4 1 5 3 4 5 6 6 7 4 2 4
31 31 31 31 33 32 31 18 56 54 49 54 40 43 28 20 10 18 13 13 15 16 5 11 7 2 2 3 3 3 3 5 3 3 6 7 7 4 3 3 6 10 6 6 2 5 7
31 30 30 31 31 34 32 32 34 57 51 53 32 45 32 16 9 15 18 15 20 22 19 23 8 8 10 4 2 3 3 2 4 3 2 6 5 4 8 4 1 13 4 4 5 6 7
Wind_Direction
304 300 316 321 333 348 1 3 5 5 10 15 15 14 16 13 14 21 33 50 63 75 74 69 88 95 90 84 71 39 31 29 25 19 24 30 41 46 38 349 329 245 307 330 323 320 318
293 292 300 317 334 347 348 342 347 353 358 359 0 6 10 10 15 15 20 50 82 84 102 91 88 85 77 72 46 22 27 27 14 11 14 22 12 10 96 235 264 326 310 308 309 298 291
286 288 304 323 333 327 330 332 337 342 345 349 349 358 5 12 16 11 28 101 106 88 125 110 94 83 61 59 45 35 24 12 5 6 4 6 2 10 4 291 320 313 309 311 324 334 268
290 309 348 306 288 317 321 325 330 331 324 336 340 351 1 14 16 14 64 120 116 96 94 100 101 83 79 51 57 37 20 20 14 10 1 355 354 12 277 309 321 316 293 346 6 329 302
261 322 304 286 302 310 306 312 326 334 317 310 331 345 358 10 15 17 102 120 110 129 83 71 109 94 65 49 51 26 12 0 7 23 47 32 29 46 23 347 330 17 307 311 316 338 312
254 290 265 299 307 306 302 302 297 315 330 301 325 336 360 8 14 14 133 124 101 80 114 72 73 108 40 53 38 25 8 357 5 24 65 36 53 45 30 349 316 309 304 295 289 290 296
251 270 277 303 297 296 307 299 298 299 312 313 307 316 1 15 22 25 142 140 78 77 65 79 74 82 57 105 41 24 8 4 20 42 25 29 48 26 343 317 287 288 284 282 281 289 278
253 248 268 280 285 300 304 306 297 294 302 300 284 286 318 335 32 38 140 111 108 110 88 72 71 61 83 84 40 24 11 37 38 27 4 24 51 15 322 323 293 287 295 284 289 280 265
260 245 259 262 271 294 305 302 299 297 296 287 259 247 239 230 70 72 85 114 141 137 101 78 85 53 62 104 56 16 13 31 39 7 19 34 324 337 335 339 331 306 293 284 279 292 284
248 253 259 264 260 273 291 299 301 295 291 273 240 223 216 192 143 102 70 98 149 143 81 262 103 36 20 189 72 29 16 32 31 352 359 295 304 335 336 331 331 304 306 309 291 278 277
263 249 259 265 271 265 274 295 298 295 283 256 226 207 198 179 141 104 101 101 134 133 50 281 60 85 75 94 344 22 20 49 22 341 348 344 336 346 346 325 321 279 298 301 286 267 282
260 272 254 262 269 267 255 278 280 293 286 248 219 204 188 172 170 124 116 106 126 51 249 135 59 47 72 39 35 22 28 34 31 15 0 322 305 11 336 318 313 282 290 281 275 264 256
261 254 254 257 266 274 254 254 269 275 273 246 220 210 191 172 181 162 137 129 59 138 333 173 139 122 111 11 61 32 18 40 42 4 9 339 350 327 326 343 324 359 315 350 303 192 256
261 254 257 251 262 263 258 241 257 252 249 237 224 219 205 191 174 164 151 76 112 178 194 121 116 103 106 23 88 32 56 41 36 52 16 14 359 346 339 15 305 306 306 319 306 314 298
251 253 257 250 250 257 267 244 243 242 233 230 228 226 222 200 186 169 167 97 202 197 163 151 99 134 154 139 122 103 62 86 26 11 17 352 290 305 309 344 359 334 358 316 274 202 279
253 249 247 245 254 251 254 254 233 232 221 218 216 232 217 192 180 169 100 242 200 190 137 121 153 168 164 164 136 91 141 286 3 344 204 152 287 279 322 352 1 18 342 334 297 6 341
249 246 246 245 243 248 250 244 233 228 213 204 190 200 186 168 164 179 188 224 208 201 155 143 158 138 154 162 161 160 141 150 193 327 109 48 205 303 309 32 339 2 16 352 274 18 329
246 244 242 241 242 238 245 247 221 223 211 195 172 153 175 168 134 127 197 207 186 167 182 129 126 119 156 163 168 169 179 161 170 206 46 232 230 289 303 307 328 301 12 21 10 353 342
251 252 242 241 236 236 232 238 217 214 213 187 172 154 176 178 169 212 265 280 219 149 161 158 144 149 157 164 151 182 179 169 123 138 117 218 183 316 123 179 6 342 341 347 256 237 20
263 251 248 236 232 230 226 232 216 209 212 197 178 153 161 201 208 162 172 208 211 210 162 147 139 134 133 162 152 169 184 189 202 174 92 147 178 191 240 288 302 306 326 344 347 28 77
256 257 255 247 228 229 222 221 217 206 207 196 204 208 178 175 209 187 196 185 165 176 216 173 154 180 160 138 153 190 189 192 82 163 125 113 198 231 268 257 267 274 310 354 89 15 75
265 253 256 240 220 224 222 216 215 202 203 204 188 178 170 167 170 186 198 208 191 173 158 204 195 185 176 162 185 184 172 193 193 173 163 63 176 111 275 106 273 283 13 73 82 90 101
261 260 250 259 238 226 220 215 207 205 200 198 209 199 190 167 159 169 203 186 193 157 206 204 174 144 178 207 195 196 185 165 150 167 185 179 156 128 196 339 129 269 211 79 93 63 175
254 258 256 248 256 219 235 219 206 206 208 201 199 188 172 169 177 188 171 190 187 191 157 174 175 144 198 175 139 117 113 126 183 215 182 163 136 90 250 326 198 136 273 225 131 111 93
255 255 253 253 251 246 243 214 205 205 214 206 199 198 189 152 187 166 171 181 170 185 148 162 172 186 159 134 84 44 353 41 333 190 190 197 137 109 195 232 311 183 187 181 198 193 142
253 253 250 249 246 243 205 248 211 204 208 211 206 204 206 137 215 182 165 179 154 148 121 117 154 155 161 81 97 162 195 174 172 135 82 140 64 181 149 227 224 158 157 168 160 242 187
254 251 247 245 247 247 250 242 207 201 204 209 204 206 207 205 208 173 168 176 171 143 130 133 149 156 167 112 134 182 210 189 187 180 165 159 108 205 170 240 270 219 177 152 200 147 244
253 250 248 244 247 244 238 251 203 200 200 205 201 198 196 199 200 192 180 163 155 169 143 155 114 166 97 142 178 186 192 204 206 180 175 172 166 182 142 206 263 171 154 207 120 280 292
254 251 250 246 237 249 255 251 210 199 197 202 202 203 195 194 199 193 202 200 198 187 170 167 165 155 161 110 183 131 172 176 184 210 180 199 199 181 203 213 239 182 168 164 301 255 275
Height
1533 1533 1533 1534 1534 1533 1532 1531 1530 1530 1528 1526 1525 1524 1522 1521 1519 1517 1517 1517 1517 1517 1517 1517 1516 1516 1516 1518 1525 1525 1523 1521 1519 1518 1515 1513 1513 1515 1517 1518 1517 1514 1515 1516 1517 1514 1510
1532 1532 1532 1532 1533 1532 1532 1531 1530 1529 1528 1527 1525 1523 1521 1520 1518 1517 1517 1517 1518 1519 1519 1519 1519 1520 1520 1519 1525 1525 1524 1522 1520 1517 1516 1515 1516 1516 1518 1518 1519 1516 1516 1515 1514 1514 1511
1531 1531 1531 1531 1531 1531 1530 1530 1529 1528 1527 1526 1525 1523 1521 1520 1519 1518 1517 1518 1519 1520 1520 1521 1521 1521 1521 1527 1527 1526 1524 1522 1519 1517 1516 1517 1516 1517 1518 1519 1520 1518 1514 1511 1509 1508 1505
1531 1530 1531 1531 1530 1530 1528 1528 1528 1527 1526 1525 1524 1523 1521 1520 1519 1518 1517 1519 1520 1521 1521 1522 1522 1522 1524 1527 1527 1527 1524 1522 1520 1518 1517 1516 1516 1518 1519 1521 1519 1517 1515 1510 1507 1508 1505
1530 1530 1531 1530 1529 1528 1527 1526 1526 1526 1525 1524 1523 1522 1521 1520 1519 1518 1518 1520 1521 1521 1522 1522 1523 1523 1527 1529 1527 1525 1523 1521 1520 1518 1517 1516 1517 1519 1520 1519 1517 1517 1512 1514 1513 1511 1506
1529 1529 1529 1528 1528 1527 1526 1525 1524 1524 1523 1522 1522 1522 1521 1520 1520 1519 1519 1520 1520 1521 1523 1523 1524 1527 1529 1530 1528 1527 1524 1521 1520 1519 1518 1518 1519 1520 1522 1521 1519 1519 1516 1514 1514 1511 1508
1527 1528 1528 1527 1527 1526 1525 1523 1523 1522 1521 1521 1521 1521 1521 1520 1520 1519 1520 1520 1524 1525 1524 1525 1527 1527 1528 1530 1529 1527 1523 1520 1520 1520 1519 1520 1518 1520 1521 1524 1522 1520 1517 1510 1503 1509 1506
1523 1525 1525 1526 1525 1524 1523 1522 1521 1520 1520 1520 1520 1520 1520 1520 1520 1520 1520 1520 1523 1527 1526 1526 1527 1527 1528 1528 1528 1527 1524 1522 1521 1521 1521 1520 1519 1523 1523 1522 1519 1514 1514 1503 1502 1500 1501
1520 1521 1522 1522 1523 1523 1521 1520 1519 1518 1518 1518 1518 1519 1520 1520 1520 1521 1520 1522 1523 1525 1526 1528 1528 1528 1529 1529 1531 1528 1524 1523 1523 1521 1522 1522 1521 1522 1520 1517 1514 1511 1511 1504 1501 1497 1496
1516 1518 1519 1519 1519 1520 1519 1518 1517 1517 1516 1516 1517 1518 1519 1520 1523 1521 1521 1522 1523 1525 1530 1531 1529 1529 1529 1529 1531 1529 1526 1526 1524 1523 1522 1522 1521 1521 1517 1516 1515 1509 1504 1505 1496 1499 1494
1512 1514 1515 1515 1515 1516 1517 1516 1515 1515 1514 1514 1516 1517 1518 1520 1520 1521 1523 1522 1523 1526 1539 1532 1529 1530 1529 1532 1533 1531 1528 1525 1526 1525 1525 1523 1521 1519 1517 1517 1517 1507 1505 1502 1496 1494 1493
1507 1509 1510 1511 1512 1512 1512 1513 1513 1513 1513 1513 1514 1516 1517 1519 1520 1522 1522 1522 1525 1535 1542 1530 1529 1530 1531 1532 1533 1532 1530 1526 1526 1525 1525 1524 1523 1521 1521 1516 1511 1506 1503 1493 1489 1492 1498
1501 1503 1505 1507 1508 1508 1509 1510 1510 1511 1511 1512 1513 1515 1517 1518 1520 1521 1522 1523 1533 1535 1533 1530 1530 1531 1533 1534 1534 1535 1536 1533 1533 1528 1529 1526 1523 1521 1520 1513 1506 1506 1500 1490 1491 1494 1480
1495 1497 1499 1501 1504 1505 1505 1507 1507 1508 1509 1510 1512 1513 1515 1517 1518 1520 1522 1525 1538 1533 1527 1527 1528 1531 1533 1535 1536 1536 1537 1537 1537 1537 1538 1534 1522 1522 1518 1519 1519 1513 1506 1499 1493 1490 1468
1488 1490 1492 1495 1497 1501 1502 1503 1504 1505 1506 1508 1510 1512 1513 1516 1517 1520 1523 1532 1524 1522 1521 1524 1529 1530 1534 1535 1535 1536 1539 1540 1540 1538 1538 1535 1529 1523 1520 1517 1515 1511 1507 1511 1501 1489 1477
1480 1483 1486 1489 1492 1495 1498 1500 1501 1502 1504 1506 1508 1511 1512 1514 1517 1519 1523 1522 1517 1517 1518 1522 1522 1528 1531 1533 1534 1535 1537 1540 1540 1539 1538 1537 1534 1523 1520 1518 1516 1514 1511 1504 1499 1497 1483
1471 1474 1478 1482 1484 1488 1492 1495 1498 1500 1500 1503 1507 1510 1511 1513 1517 1519 1521 1520 1515 1513 1515 1519 1523 1526 1528 1531 1533 1535 1537 1540 1539 1537 1537 1537 1537 1525 1521 1525 1524 1517 1516 1516 1515 1510 1499
1463 1465 1469 1474 1478 1481 1485 1488 1493 1497 1498 1500 1503 1508 1508 1512 1517 1519 1519 1513 1510 1511 1513 1516 1519 1522 1525 1529 1531 1533 1534 1534 1537 1537 1537 1537 1536 1532 1527 1527 1526 1522 1522 1520 1516 1517 1514
1453 1456 1460 1466 1469 1473 1478 1482 1487 1492 1494 1497 1500 1502 1506 1509 1516 1518 1515 1512 1510 1510 1511 1514 1517 1519 1523 1526 1532 1531 1532 1534 1535 1536 1536 1536 1537 1533 1523 1527 1525 1524 1520 1521 1520 1524 1520
1446 1447 1450 1452 1459 1464 1469 1474 1480 1485 1490 1496 1497 1499 1503 1506 1506 1508 1510 1509 1510 1509 1509 1511 1514 1517 1521 1525 1527 1531 1531 1532 1533 1534 1535 1534 1535 1534 1534 1536 1536 1528 1520 1520 1520 1512 1515
1436 1438 1441 1445 1450 1454 1460 1466 1472 1477 1484 1491 1489 1485 1485 1493 1500 1503 1505 1503 1504 1507 1509 1509 1513 1513 1516 1530 1528 1527 1529 1530 1532 1532 1534 1534 1535 1534 1533 1533 1534 1529 1525 1519 1515 1514 1514
1427 1429 1432 1434 1438 1444 1450 1456 1464 1469 1477 1483 1480 1481 1483 1485 1489 1498 1501 1500 1499 1503 1505 1508 1509 1511 1513 1516 1517 1526 1525 1528 1528 1532 1533 1536 1536 1536 1542 1532 1531 1526 1522 1520 1516 1517 1518
1418 1419 1422 1424 1426 1430 1439 1446 1454 1461 1463 1465 1475 1475 1476 1480 1484 1489 1489 1492 1494 1498 1502 1502 1505 1510 1513 1512 1515 1517 1520 1522 1525 1528 1531 1534 1535 1539 1533 1533 1528 1529 1521 1520 1520 1520 1519
1408 1410 1412 1416 1418 1421 1422 1433 1441 1450 1452 1458 1465 1471 1472 1476 1479 1477 1480 1486 1490 1493 1496 1501 1504 1507 1510 1510 1514 1518 1520 1522 1524 1526 1528 1531 1533 1541 1534 1531 1530 1518 1520 1520 1519 1521 1521
1398 1400 1403 1405 1408 1410 1412 1421 1429 1438 1446 1451 1458 1464 1465 1470 1473 1476 1478 1481 1487 1492 1495 1498 1501 1504 1508 1511 1517 1523 1527 1525 1528 1525 1527 1529 1531 1544 1531 1531 1524 1518 1517 1517 1517 1519 1520
1387 1390 1393 1395 1398 1402 1404 1405 1416 1427 1436 1444 1452 1458 1462 1463 1466 1468 1473 1477 1482 1488 1494 1496 1500 1503 1506 1512 1518 1521 1517 1520 1520 1524 1527 1530 1530 1529 1547 1530 1523 1507 1513 1516 1518 1516 1517
1376 1379 1382 1385 1387 1391 1391 1393 1404 1416 1426 1436 1443 1452 1460 1460 1460 1463 1467 1470 1474 1480 1487 1494 1498 1503 1505 1514 1520 1518 1513 1514 1511 1510 1524 1527 1535 1530 1542 1524 1513 1507 1511 1515 1518 1513 1513
1366 1369 1372 1375 1377 1380 1383 1386 1394 1405 1417 1426 1434 1444 1452 1455 1457 1459 1462 1463 1468 1472 1480 1489 1496 1500 1505 1510 1512 1517 1515 1509 1508 1506 1508 1511 1520 1525 1535 1529 1516 1505 1509 1509 1508 1508 1508
1356 1359 1361 1364 1369 1371 1373 1374 1376 1394 1407 1419 1427 1436 1448 1453 1455 1456 1459 1463 1464 1468 1472 1480 1481 1486 1491 1502 1510 1511 1509 1511 1506 1502 1505 1505 1501 1504 1508 1502 1500 1501 1502 1503 1504 1505 1505